Ord, NE

12:36 AM CDT on May 23, 2017 (GMT -0500)
Sharp

Weather History for KODX - December, 2012

Change the Weather History Date:

Thursday, December 13, 2012

  Actual Average Record
Temperature  
Mean Temperature 33 °F 25 °F  
Max Temperature 50 °F 36 °F 57 °F (2006)
Min Temperature 16 °F 13 °F 1 °F (2000)
Degree Days  
Heating Degree Days 32 40  
Month to date heating degree days 396 499  
Since 1 July heating degree days 1922 1980  
Cooling Degree Days 0 0  
Month to date cooling degree days 0 0  
Year to date cooling degree days 1220 845  
Moisture  
Dew Point 16 °F    
Average Humidity 60    
Maximum Humidity 80    
Minimum Humidity 39    
Precipitation  
Precipitation 0.00 in 0.01 in 1.25 in (1907)
Month to date precipitation T 0.43  
Year to date precipitation 11.49 24.78  
Sea Level Pressure  
Sea Level Pressure 30.03 in    
Wind  
Wind Speed 2 mph (NW)    
Max Wind Speed 9 mph    
Max Gust Speed 12 mph    
Visibility 10 miles    
Events      
T = Trace of Precipitation, MM = Missing Value Source: NWS Daily Summary

Daily Weather History Graph

Daily Weather History Graph

Search for Another Location

Airport or City:

Trip Planner

Search our weather history database for the weather conditions in past years. The results will help you decide how hot, cold, wet, or windy it might be!

Date:

Astronomy

Dec. 13, 2012 Rise Set
Actual Time 7:54 AM CST 5:06 PM CST
Civil Twilight 7:23 AM CST 5:37 PM CST
Nautical Twilight 6:48 AM CST 6:12 PM CST
Astronomical Twilight 6:14 AM CST 6:46 PM CST
Moon 8:04 AM CST (12/13) 5:50 PM CST (12/13)
Length of Visible Light 10h 14m
Length of Day
9h 11m
New Moon, 0% of the Moon is Illuminated
Dec 13
New Moon
Dec 19
First Quarter
Dec 28
Full
Jan 4
Last Quarter
Jan 11
New

Hourly Weather History & Observations

Time (CST) Temp. Windchill Dew Point Humidity Pressure Visibility Wind Dir Wind Speed Gust Speed Precip Events Conditions
12:53 AM 34.0 °F 29.8 °F 14.0 °F 44% 29.89 in 10.0 mi SSW 4.6 mph - N/A   Clear
1:53 AM 28.9 °F 25.2 °F 12.9 °F 51% 29.91 in 10.0 mi South 3.5 mph - N/A   Clear
2:53 AM 23.0 °F - 10.9 °F 60% 29.94 in 10.0 mi Calm Calm - N/A   Clear
3:53 AM 19.0 °F - 10.0 °F 68% 29.95 in 10.0 mi Calm Calm - N/A   Clear
4:53 AM 21.0 °F - 12.0 °F 68% 29.96 in 10.0 mi Calm Calm - N/A   Clear
5:53 AM 18.0 °F - 10.0 °F 71% 29.99 in 10.0 mi Calm Calm - N/A   Clear
6:53 AM 18.0 °F - 10.0 °F 71% 30.03 in 10.0 mi Calm Calm - N/A   Clear
7:53 AM 18.0 °F 12.7 °F 12.0 °F 78% 30.04 in 10.0 mi NW 3.5 mph - N/A   Clear
8:53 AM 24.1 °F 18.2 °F 14.0 °F 65% 30.06 in 10.0 mi NW 4.6 mph - N/A   Clear
9:53 AM 32.0 °F - 17.1 °F 54% 30.08 in 10.0 mi Calm Calm - N/A   Clear
10:53 AM 43.0 °F 40.3 °F 19.9 °F 40% 30.06 in 10.0 mi North 4.6 mph - N/A   Clear
11:53 AM 46.9 °F - 24.1 °F 41% 30.06 in 10.0 mi North 8.1 mph - N/A   Clear
12:53 PM 46.0 °F 43.9 °F 25.0 °F 44% 30.06 in 10.0 mi NNW 4.6 mph - N/A   Clear
1:53 PM 46.9 °F - 25.0 °F 42% 30.05 in 10.0 mi NNW 6.9 mph - N/A   Clear
2:53 PM 48.9 °F - 25.0 °F 39% 30.05 in 10.0 mi NNW 5.8 mph - N/A   Clear
3:53 PM 46.9 °F - 25.0 °F 42% 30.06 in 10.0 mi Calm Calm - N/A   Clear
6:53 PM 28.4 °F - 21.2 °F 74% 30.01 in 10.0 mi Calm Calm - N/A   Clear
7:53 PM 24.1 °F - 18.0 °F 77% 30.11 in 10.0 mi Calm Calm - N/A   Clear
8:53 PM 21.0 °F - 14.0 °F 74% 30.10 in 10.0 mi Calm Calm - N/A   Clear
9:53 PM 19.0 °F - 12.9 °F 77% 30.09 in 10.0 mi Calm Calm - N/A   Clear
10:53 PM 16.0 °F - 10.9 °F 81% 30.07 in 10.0 mi Calm Calm - N/A   Clear
11:53 PM 19.0 °F - 12.9 °F 77% 30.06 in 10.0 mi Calm Calm - N/A   Clear